METEOR 2-6 DEB, 45500

Orbit data source: Space-Track

METEOR 2-6 DEB, 45500 is space debris in LEO originally from a launch on Tue, 09 Sep 1980 UTC launched from the Plesetsk Missile And Space Complex (PKMTR). Debris objects in space refer to the collection of defunct objects orbiting the Earth. Examples of debris include non-operational satellites, rocket bodies, and fragments generated from explosions, collisions, or faulty payload assembly.

Loading next visibility...
Identifier
45500, 1980-073U
Orbit
LEO
Country
Flag of CISCIS
Related business
Manufacturer
Unknown
Mission
Spacecraft
Bus & Motor
Unknown
Mass
Unknown
Launch date (UTC)
1980-09-09 (45 years ago)
Launch vehicle
Unknown
Launch site
Plesetsk Missile And Space Complex (PKMTR)
Object type
Payload
Rocket body
Debris
Shape & HBR
Unknown shape, 0.1 m
Radar Cross Section
Small (<0.1 m²)

Expand to show TLE details & history
Last TLE update: 5 days ago

TLE from 5 days ago
0 METEOR 2-6 DEB
1 45500U 80073U   25347.01264689  .00007456  00000-0  30093-2 0  9998
2 45500  81.2182 249.2643 0048458 241.3724 118.2578 14.27206852474778
Epoch: 2025-12-13T00:18Z
TLE epoch observation values (Epoch: 2025-12-13T00:18:12.691Z)
Latitude
-0.00001°
Longitude
162.7654°
Altitude
820.609 km
Speed
7.434 km/s
True Right ascension
16h 37m 03s
True Declination
0° 00' 00"
Sunlit
Object was in daylight at epoch
Visualization orbit readout
Latitude
Unknown
Longitude
Unknown
Altitude
Unknown
Speed
Unknown
Apparent Right ascension
Unknown
Apparent Declination
Unknown
Sunlit
N/A
Visualization observer readout
Local Sidereal Time
21:56:20
Azimuth
Unknown
Elevation
Unknown
Doppler factor
Unknown
Orbital elements
Apogee altitude
833.01 km
Perigee altitude
763.459 km
Semi-major axis
7,176.372 km
Eccentricity
0.00485
Inclination
81.2182°
RAAN
249.2643°
Arg. of periapsis
241.3724°
True anomaly
118.74551°
Mean anomaly
118.2578°
Eccentric anomaly
118.50179°
Mean motion
3.57014 °/min
Orbital period
100.84 mins
BSTAR
0.0030093
Loading maneuver chart data...
Computing Atmospheric mass density...
Loading historical data...
Loading historical data...
Loading historical data...
Loading historical data...
Loading historical data...
Loading historical data...
Loading historical data...

Documentation

Showing up to 5 results
|